Regional Weather Roundup
Issued by NWS

Home | Current Version | Previous Version | Text Only | Print | Product List | Glossary On
Versions: 1 2 3 4 5 6 7 8 9 10 11 12 13 14 15 16 17 18 19 20 21 22 23 24 25 26 27 28 29 30 31 32 33 34 35 36 37 38 39 40 41 42 43 44 45 46 47 48 49 50
000
ASUS44 KMEG 010000
RWRTN
TENNESSEE HOURLY STATE WEATHER ROUNDUP
NATIONAL WEATHER SERVICE MEMPHIS TN
700 PM CDT TUE MAR 31 2015

TNZ002-004-019-021-049-052-054-088>092-010100-
WEST TENNESSEE

CITY           SKY/WX    TMP DP  RH WIND       PRES   REMARKS
MEMPHIS INTL   PTCLDY    74  62  66 SW12      29.89S
NWS MEMPHIS      N/A     75 N/A N/A MISG        N/A
JACKSON        PTCLDY    71  52  50 N5        29.87F
DYERSBURG      CLOUDY    66  45  45 N18G31    29.93R
PARIS          CLEAR     70  48  46 W5        29.91S
LEXINGTON      CLEAR     73  48  40 NW6       29.87F
SAVANNAH       MOCLDY    70  55  60 S8        29.89R
$$

TNZ008-025-027-028-033-062-065-066-010100-
NORTH MIDDLE TENNESSEE

CITY           SKY/WX    TMP DP  RH WIND       PRES   REMARKS
NASHVILLE      PTCLDY    75  41  29 W6        29.88R
CLARKSVILLE    CLEAR     70  43  37 N9        29.88R
CROSSVILLE     CLEAR     68  37  32 NW12      29.91R
$$

TNZ061-075-076-078-094-096-097-010100-
SOUTH MIDDLE TENNESSEE

CITY           SKY/WX    TMP DP  RH WIND       PRES   REMARKS
FAYETTEVILLE   CLEAR     66  55  68 SW5       29.91S
TULLAHOMA      CLEAR     68  45  42 SW7       29.91S
WINCHESTER     CLEAR     70  57  64 SW7       29.91R
COLUMBIA       PTCLDY    72  52  49 SW3       29.87S
SHELBYVILLE    CLEAR     73  48  40 W6        29.89F
$$

TNZ017-018-042-046-047-010100-
NORTHEAST TENNESSEE

CITY           SKY/WX    TMP DP  RH WIND       PRES   REMARKS
TRI CITIES     PTCLDY    69  36  29 W14G25    29.81S
ELIZABETHTON   CLEAR     64  45  48 W9        29.82S
$$

TNZ012-013-036-069-073-074-010100-
CENTRAL EAST TENNESSEE

CITY           SKY/WX    TMP DP  RH WIND       PRES   REMARKS
KNOXVILLE      PTCLDY    70  44  39 W9        29.85R
OAK RIDGE      CLEAR     74  40  29 W8        29.86R
$$

TNZ083-085-099-010100-
SOUTHEAST TENNESSEE

CITY           SKY/WX    TMP DP  RH WIND       PRES   REMARKS
CHATTANOOGA    PTCLDY    74  55  51 SW12      29.88S
$$

SKY/WX REPORTED AS FAIR MEANS FEW OR NO CLOUDS BELOW
12 THOUSAND FEET.



USA.gov is the U.S. government's official web portal to all federal, state and local government web resources and services.